Regional Weather Roundup
Issued by NWS Newport/Morehead, NC

Current Version | Previous Version | Text Only | Print | Product List | Glossary Off
Versions: 1 2 3 4 5 6 7 8 9 10 11 12 13 14 15 16 17 18 19 20 21 22 23 24 25 26 27 28 29 30 31 32 33 34 35 36 37 38 39 40 41 42 43 44 45 46 47 48 49 50
000 ASUS42 KMHX 190422 RWRMHX WEATHER ROUNDUP FOR EASTERN NORTH CAROLINA NATIONAL WEATHER SERVICE NEWPORT/MOREHEAD CITY NC 1100 PM EST THU DEC 18 2014 NOTE: "FAIR" INDICATES FEW OR NO CLOUDS BELOW 12,000 FEET WITH NO SIGNIFICANT WEATHER AND/OR OBSTRUCTIONS TO VISIBILITY NCZ015>017-031-032-045>047-102-103-190500- NORTH COAST CITY SKY/WX TMP DP RH WIND PRES REMARKS EDENTON N/A 36 33 90 CALM 30.10F ELIZABETH CITY CLOUDY 42 35 76 W3 30.11R KITTY HAWK MOCLDY 40 35 81 CALM 30.09S MANTEO MOCLDY 42 35 75 CALM 30.11S $$ NCZ045>047-081-094-103-104-190500- CENTRAL COAST CITY SKY/WX TMP DP RH WIND PRES REMARKS FRISCO CLEAR 33 32 96 CALM 30.10S SWANQUARTER N/A 36 N/A N/A CALM 30.06S $$ NCZ095-097-098-100-101-190500- SOUTHERN COAST CITY SKY/WX TMP DP RH WIND PRES REMARKS BEAUFORT CLEAR 36 32 85 CALM 30.13R CEDAR ISLAND N/A 37 N/A N/A W2 30.15R JACKSONVILLE CLEAR 36 34 92 CALM 30.13R PINEY ISLAND PTCLDY 45 36 70 W3 30.12R WILMINGTON CLEAR 36 34 92 NE3 30.12R $$ NCZ011>013-027>030-043-044-078>080-089-090>093-098-190500- COASTAL PLAIN CITY SKY/WX TMP DP RH WIND PRES REMARKS AHOSKIE MOCLDY 36 32 87 CALM 30.11R CLINTON CLOUDY 37 36 94 CALM 30.13S ELIZABETHTOWN CLEAR 37 32 83 CALM 30.12S GOLDSBORO CLOUDY 38 38 99 CALM 30.10R GREENVILLE MOCLDY 36 34 93 CALM 30.11F HAVELOCK CLEAR 36 32 85 CALM 30.14R KENANSVILLE MOCLDY 33 32 97 CALM 30.12F KINSTON PTCLDY 33 32 96 S3 30.11F NEW BERN PTCLDY 36 32 85 CALM 30.13R RICHLANDS CLEAR 34 28 80 CALM 30.13S ROCKY MOUNT PTCLDY 36 34 92 CALM 30.11R WASHINGTON MOCLDY 34 31 91 CALM 30.11S WHITEVILLE CLEAR 37 33 85 CALM 30.12R $$ AMZ130-135-150-152-154-156-158-170-250-252-270-ANZ085-086-088-633-658-670-190500- MARINE OBSERVATIONS STATION/POSITION TIME TEMP WIND PRES WAVE SWELL AIR SEA DIR/SP/G HT/PER HT/PER (UTC) (F) (DEG/KT/KT) (MB) (FT/S) (FT/S) CHESAPEAKE LIGHT 0400 41 360/ 9/ 11 1019.8 64 E VA BEACH 0400 44 55 330/ 10/ 14 1018.6 3/ 5 2/ 5 DUCK 0400 44 48 310/ 2/ 2 1018.5 2 E DUCK 0400 48 N/A 3/ 6 10 NE DUCK 0400 51 N/A 3/ 5 OREGON INLET 0400 44 50 280/ 3/ 5 1019.3 13E OREGON INLT 0400 53 N/A 3/ 6 HATTERAS CG 0400 45 56 30/ 2/ 3 1019.6 DIAMOND BUOY 0400 47 1019.6 3/ 9 17 S OCRACOKE NOT AVBL CAPE LOOKOUT 0400 48 360/ 4/ 5 1019.8 BEAUFORT LAB 0400 43 53 340/ 2/ 3 1019.1 30 SE NEW RIVER 0400 53 60 330/ 2/ 2 1020.3 1/10 2/10 5 SE WRIGHTSVLE 0400 49 55 30/ 4/ 4 1020.0 225 S CAPE HAT 0344 69 72 280/ 4/ 6 1018.2 3/ 5 3/ 5 41 SE CHARLESTON 0400 62 72 340/ 4/ 6 1019.0 2/10 2/10 $$

USA.gov is the U.S. government's official web portal to all federal, state and local government web resources and services.